Location: Chervonnoye
(48.6000°N, 34.4000°E)
Time: 12:31:18
(UTC+00:00)

deb Kosmos-2237 - Pass Details

Date: 16 June 2021
Orbit: 850 x 1045 km, 71.0° (Epoch: 25 July)

Event Time Altitude Azimuth Distance (km) Brightness Sun altitude
Rises 23:08:56 0° 298° (WNW) 3,669 ? -15.5°
Reaches altitude 10° 23:14:34 10° 338° (NNW) 2,782 ? -15.2°
Maximum altitude 23:15:37 10° 348° (NNW) 2,764 ? -15.1°
Drops below altitude 10° 23:16:40 10° 357° (N) 2,801 ? -15.1°
Sets 23:22:29 0° 37° (NE) 3,796 ? -14.7°
